CES5774 ZPDQ-ZULS

Flight info

Callsign CES5774
Flight time N/A
Altitude 31100
Route P211 H87 PARGU B213 IGELA W522 IGDAG
Aircraft A319/M-SDE3FGHIRWY/LB1D1

Departure

Time N/A
Airport Diqing Shangri-La Airport (ZPDQ)

Arrival

Time 2026-04-22 11:46
Airport Lhasa Gonggar International Airport (ZULS)
Time Latitude Longitude Altitude Speed Heading
2026-04-22 09:39 28.29199 99.54711 32399 ft 459 kts 338°
2026-04-22 09:39 28.32322 99.53941 32792 ft 459 kts 338°
2026-04-22 09:40 28.35434 99.53158 32974 ft 458 kts 337°
2026-04-22 09:40 28.38543 99.52364 33018 ft 457 kts 336°
2026-04-22 09:40 28.44755 99.50755 33018 ft 459 kts 337°
2026-04-22 09:41 28.50987 99.49141 33005 ft 461 kts 337°
2026-04-22 09:41 28.57247 99.47525 33006 ft 461 kts 337°
2026-04-22 09:42 28.63502 99.45914 33003 ft 462 kts 338°
2026-04-22 09:42 28.69771 99.44298 33001 ft 462 kts 338°
2026-04-22 09:43 28.76042 99.42683 32994 ft 462 kts 338°
2026-04-22 09:43 28.82324 99.41059 32991 ft 463 kts 338°
2026-04-22 09:44 28.88613 99.39433 32977 ft 463 kts 338°
2026-04-22 09:44 28.94907 99.37796 32978 ft 464 kts 338°
2026-04-22 09:45 29.01210 99.36158 32983 ft 465 kts 339°
2026-04-22 09:45 29.07527 99.34518 32981 ft 466 kts 339°
2026-04-22 09:46 29.13851 99.32865 32984 ft 467 kts 339°
2026-04-22 09:46 29.20185 99.31213 32984 ft 468 kts 339°
2026-04-22 09:47 29.26543 99.29552 32979 ft 468 kts 339°
2026-04-22 09:47 29.32901 99.27891 32988 ft 470 kts 339°
2026-04-22 09:48 29.39229 99.26243 32978 ft 468 kts 340°
2026-04-22 09:48 29.45650 99.24558 33010 ft 477 kts 339°
2026-04-22 09:49 29.52104 99.22870 33008 ft 473 kts 339°
2026-04-22 09:49 29.58531 99.21172 32976 ft 472 kts 340°
2026-04-22 09:50 29.64947 99.19476 32983 ft 474 kts 339°
2026-04-22 09:50 29.71371 99.17780 32983 ft 474 kts 340°
2026-04-22 09:51 29.77804 99.16093 32982 ft 475 kts 340°
2026-04-22 09:51 29.84237 99.14401 32987 ft 475 kts 340°
2026-04-22 09:52 29.90682 99.12691 32997 ft 475 kts 340°
2026-04-22 09:52 29.95743 99.10556 32981 ft 459 kts 323°
2026-04-22 09:53 29.99117 99.07697 32983 ft 444 kts 309°
2026-04-22 09:53 30.01136 99.05072 32983 ft 432 kts 299°
2026-04-22 09:53 30.03480 99.00102 32968 ft 419 kts 284°
2026-04-22 09:54 30.05241 98.93693 32968 ft 420 kts 282°
2026-04-22 09:54 30.07281 98.86182 32980 ft 423 kts 282°
2026-04-22 09:55 30.08751 98.80757 32977 ft 423 kts 282°
2026-04-22 09:55 30.10494 98.74271 32960 ft 422 kts 282°
2026-04-22 09:56 30.12232 98.67788 32959 ft 425 kts 281°
2026-04-22 09:56 30.13978 98.61262 32968 ft 425 kts 282°
2026-04-22 09:57 30.15715 98.54738 32976 ft 425 kts 282°
2026-04-22 09:57 30.17448 98.48211 32983 ft 425 kts 282°
2026-04-22 09:58 30.19183 98.41682 32983 ft 425 kts 282°
2026-04-22 09:58 30.20910 98.35188 32981 ft 425 kts 282°
2026-04-22 09:59 30.22644 98.28652 32982 ft 425 kts 282°
2026-04-22 09:59 30.24369 98.22116 32979 ft 424 kts 282°
2026-04-22 10:00 30.26088 98.15585 32970 ft 425 kts 282°
2026-04-22 10:00 30.27806 98.09041 32967 ft 425 kts 282°
2026-04-22 10:01 30.29512 98.02491 32967 ft 426 kts 282°
2026-04-22 10:01 30.31213 97.95936 32967 ft 426 kts 281°
2026-04-22 10:02 30.32933 97.89350 32988 ft 428 kts 282°
2026-04-22 10:02 30.34665 97.82709 32987 ft 432 kts 281°
2026-04-22 10:03 30.36378 97.76069 32985 ft 430 kts 281°
2026-04-22 10:03 30.38075 97.69447 32988 ft 428 kts 281°
2026-04-22 10:04 30.39765 97.62852 32983 ft 424 kts 281°
2026-04-22 10:04 30.41440 97.56302 32963 ft 424 kts 281°
2026-04-22 10:05 30.43120 97.49771 32945 ft 422 kts 281°
2026-04-22 10:05 30.44772 97.43297 32949 ft 422 kts 281°
2026-04-22 10:06 30.46439 97.36757 32950 ft 423 kts 282°
2026-04-22 10:06 30.48104 97.30208 32955 ft 424 kts 282°
2026-04-22 10:07 30.49767 97.23650 32956 ft 424 kts 282°
2026-04-22 10:07 30.51433 97.17101 32959 ft 425 kts 283°
2026-04-22 10:08 30.54216 97.10975 32961 ft 438 kts 301°
2026-04-22 10:08 30.57888 97.05339 32965 ft 438 kts 301°
2026-04-22 10:09 30.61538 96.99688 32966 ft 438 kts 300°
2026-04-22 10:09 30.65183 96.94009 32970 ft 438 kts 300°
2026-04-22 10:10 30.68829 96.88329 32982 ft 438 kts 300°
2026-04-22 10:10 30.72469 96.82656 32981 ft 438 kts 300°
2026-04-22 10:11 30.76109 96.76989 32984 ft 438 kts 301°
2026-04-22 10:11 30.79750 96.71310 32963 ft 436 kts 300°
2026-04-22 10:12 30.83370 96.65649 32959 ft 436 kts 300°
2026-04-22 10:12 30.86990 96.59974 32962 ft 437 kts 300°
2026-04-22 10:13 30.90610 96.54291 32965 ft 436 kts 300°
2026-04-22 10:13 30.94191 96.48643 32970 ft 436 kts 298°
2026-04-22 10:14 30.96598 96.42359 32980 ft 420 kts 278°
2026-04-22 10:14 30.96868 96.35691 32983 ft 409 kts 259°
2026-04-22 10:15 30.95598 96.29247 32973 ft 408 kts 254°
2026-04-22 10:15 30.94240 96.22830 32969 ft 409 kts 254°
2026-04-22 10:16 30.92878 96.16391 32975 ft 410 kts 254°
2026-04-22 10:16 30.91509 96.09960 32968 ft 410 kts 254°
2026-04-22 10:17 30.90134 96.03518 32959 ft 410 kts 254°
2026-04-22 10:17 30.88746 95.97071 32940 ft 410 kts 254°
2026-04-22 10:18 30.87357 95.90618 32930 ft 412 kts 255°
2026-04-22 10:18 30.85975 95.84193 32926 ft 412 kts 255°
2026-04-22 10:19 30.84592 95.77765 32906 ft 409 kts 255°
2026-04-22 10:19 30.83209 95.71327 32907 ft 411 kts 255°
2026-04-22 10:20 30.81868 95.64854 32911 ft 412 kts 255°
2026-04-22 10:20 30.80548 95.58372 32914 ft 412 kts 255°
2026-04-22 10:21 30.79220 95.51888 32917 ft 413 kts 255°
2026-04-22 10:21 30.77869 95.45398 32923 ft 413 kts 255°
2026-04-22 10:22 30.76516 95.38919 32924 ft 413 kts 255°
2026-04-22 10:22 30.75162 95.32431 32932 ft 413 kts 255°
2026-04-22 10:23 30.73805 95.25946 32935 ft 413 kts 255°
2026-04-22 10:23 30.72444 95.19465 32938 ft 413 kts 255°
2026-04-22 10:24 30.71081 95.12993 32939 ft 412 kts 255°
2026-04-22 10:24 30.69720 95.06535 32932 ft 411 kts 255°
2026-04-22 10:25 30.68365 95.00086 32934 ft 411 kts 255°
2026-04-22 10:25 30.66992 94.93650 32928 ft 411 kts 255°
2026-04-22 10:26 30.65623 94.87214 32928 ft 411 kts 255°
2026-04-22 10:26 30.64249 94.80761 32927 ft 411 kts 255°
2026-04-22 10:27 30.62873 94.74323 32929 ft 410 kts 255°
2026-04-22 10:27 30.61494 94.67900 32920 ft 410 kts 255°
2026-04-22 10:28 30.60114 94.61487 32924 ft 409 kts 255°
2026-04-22 10:28 30.58741 94.55080 32926 ft 409 kts 255°
2026-04-22 10:29 30.57371 94.48710 32924 ft 409 kts 255°
2026-04-22 10:29 30.55977 94.42272 32928 ft 409 kts 255°
2026-04-22 10:30 30.54602 94.35923 32928 ft 408 kts 255°
2026-04-22 10:30 30.53211 94.29524 32928 ft 409 kts 254°
2026-04-22 10:31 30.51811 94.23147 32916 ft 407 kts 254°
2026-04-22 10:31 30.50427 94.16780 32913 ft 407 kts 255°
2026-04-22 10:32 30.49101 94.10384 32914 ft 408 kts 255°
2026-04-22 10:32 30.47796 94.03989 32911 ft 407 kts 255°
2026-04-22 10:33 30.46475 93.97603 32917 ft 407 kts 255°
2026-04-22 10:33 30.45147 93.91232 32908 ft 406 kts 255°
2026-04-22 10:34 30.43808 93.84861 32905 ft 407 kts 255°
2026-04-22 10:34 30.42463 93.78494 32896 ft 407 kts 255°
2026-04-22 10:35 30.41121 93.72132 32895 ft 407 kts 255°
2026-04-22 10:35 30.39787 93.65763 32899 ft 407 kts 255°
2026-04-22 10:36 30.38397 93.59461 32884 ft 406 kts 251°
2026-04-22 10:36 30.36499 93.53299 32693 ft 408 kts 250°
2026-04-22 10:37 30.35544 93.50204 32495 ft 408 kts 250°
2026-04-22 10:37 30.33629 93.43995 32088 ft 411 kts 250°
2026-04-22 10:37 30.32663 93.40877 31890 ft 413 kts 250°
2026-04-22 10:38 30.31689 93.37739 31689 ft 414 kts 250°
2026-04-22 10:38 30.30714 93.34599 31484 ft 416 kts 250°
2026-04-22 10:38 30.29733 93.31444 31281 ft 417 kts 250°
2026-04-22 10:38 30.28748 93.28281 31088 ft 419 kts 250°
2026-04-22 10:39 30.27757 93.25106 30885 ft 420 kts 250°
2026-04-22 10:39 30.26762 93.21915 30678 ft 422 kts 250°
2026-04-22 10:39 30.25768 93.18722 30482 ft 423 kts 250°
2026-04-22 10:39 30.24768 93.15508 30282 ft 425 kts 250°
2026-04-22 10:40 30.23770 93.12292 30083 ft 426 kts 250°
2026-04-22 10:40 30.22764 93.09063 29879 ft 428 kts 250°
2026-04-22 10:40 30.21751 93.05828 29682 ft 429 kts 250°
2026-04-22 10:40 30.20730 93.02571 29481 ft 431 kts 251°
2026-04-22 10:41 30.19705 92.99308 29290 ft 433 kts 251°
2026-04-22 10:41 30.18674 92.96034 29083 ft 434 kts 251°
2026-04-22 10:41 30.17990 92.93861 28947 ft 435 kts 251°
2026-04-22 10:42 30.15915 92.87263 28881 ft 439 kts 251°
2026-04-22 10:42 30.13832 92.80624 28878 ft 440 kts 251°
2026-04-22 10:43 30.11384 92.72864 28875 ft 440 kts 251°
2026-04-22 10:43 30.09631 92.67344 28716 ft 441 kts 251°
2026-04-22 10:43 30.08576 92.64016 28503 ft 441 kts 251°
2026-04-22 10:44 30.07519 92.60684 28316 ft 443 kts 251°
2026-04-22 10:44 30.06458 92.57341 28112 ft 444 kts 251°
2026-04-22 10:44 30.05398 92.53973 27920 ft 447 kts 251°
2026-04-22 10:44 30.04295 92.50616 27709 ft 449 kts 248°
2026-04-22 10:45 30.02809 92.47428 27510 ft 453 kts 239°
2026-04-22 10:45 30.00922 92.44488 27314 ft 457 kts 232°
2026-04-22 10:45 29.98714 92.41903 27116 ft 462 kts 224°
2026-04-22 10:45 29.96098 92.39624 26912 ft 468 kts 216°
2026-04-22 10:46 29.93337 92.37606 26711 ft 471 kts 215°
2026-04-22 10:46 29.90597 92.35619 26513 ft 472 kts 215°
2026-04-22 10:46 29.87816 92.33614 26307 ft 474 kts 215°
2026-04-22 10:46 29.85011 92.31599 26107 ft 475 kts 215°
2026-04-22 10:47 29.82205 92.29580 25911 ft 476 kts 215°
2026-04-22 10:47 29.79392 92.27552 25706 ft 478 kts 215°
2026-04-22 10:47 29.76569 92.25514 25505 ft 480 kts 215°
2026-04-22 10:47 29.73737 92.23468 25303 ft 481 kts 215°
2026-04-22 10:48 29.70904 92.21423 25098 ft 482 kts 215°
2026-04-22 10:48 29.68108 92.19408 24908 ft 464 kts 214°
2026-04-22 10:48 29.65420 92.17476 24726 ft 446 kts 214°
2026-04-22 10:48 29.62845 92.15626 24546 ft 429 kts 215°
2026-04-22 10:49 29.60355 92.13834 24379 ft 415 kts 215°
2026-04-22 10:49 29.58609 92.12577 24246 ft 407 kts 215°
2026-04-22 10:49 29.58087 92.12203 24215 ft 404 kts 215°
2026-04-22 10:49 29.55735 92.10519 24044 ft 393 kts 215°
2026-04-22 10:50 29.53446 92.08872 23866 ft 383 kts 215°
2026-04-22 10:50 29.51250 92.07293 23693 ft 373 kts 215°
2026-04-22 10:50 29.49068 92.05723 23513 ft 368 kts 215°
2026-04-22 10:50 29.46901 92.04163 23338 ft 367 kts 214°
2026-04-22 10:51 29.44742 92.02609 23158 ft 365 kts 214°
2026-04-22 10:51 29.42592 92.01063 22985 ft 364 kts 215°
2026-04-22 10:51 29.40449 91.99524 22807 ft 362 kts 214°
2026-04-22 10:51 29.38309 91.97992 22631 ft 363 kts 214°
2026-04-22 10:52 29.36255 91.96339 22452 ft 360 kts 221°
2026-04-22 10:52 29.34412 91.94413 22280 ft 357 kts 229°
2026-04-22 10:52 29.32808 91.92251 22111 ft 355 kts 236°
2026-04-22 10:52 29.31461 91.89900 22015 ft 352 kts 243°
2026-04-22 10:53 29.30348 91.87416 21917 ft 350 kts 246°
2026-04-22 10:53 29.29272 91.84912 21796 ft 350 kts 246°
2026-04-22 10:53 29.28195 91.82414 21650 ft 349 kts 246°
2026-04-22 10:53 29.27122 91.79925 21670 ft 348 kts 246°
2026-04-22 10:54 29.26268 91.77345 21678 ft 346 kts 258°
2026-04-22 10:54 29.25887 91.74668 21477 ft 344 kts 269°
2026-04-22 10:54 29.25982 91.71951 21204 ft 341 kts 277°
2026-04-22 10:54 29.26228 91.69255 20933 ft 340 kts 277°
2026-04-22 10:55 29.26464 91.66562 20653 ft 339 kts 277°
2026-04-22 10:55 29.26693 91.63877 20378 ft 338 kts 277°
2026-04-22 10:55 29.26917 91.61218 20100 ft 337 kts 276°
2026-04-22 10:55 29.27140 91.58552 19829 ft 336 kts 276°
2026-04-22 10:56 29.27362 91.55893 19554 ft 335 kts 276°
2026-04-22 10:56 29.27588 91.53238 19277 ft 334 kts 276°
2026-04-22 10:56 29.27813 91.50592 19001 ft 333 kts 276°
2026-04-22 10:56 29.28024 91.47965 18724 ft 329 kts 276°
2026-04-22 10:57 29.28218 91.45367 18446 ft 325 kts 275°
2026-04-22 10:57 29.28406 91.42798 18170 ft 322 kts 275°
2026-04-22 10:57 29.28590 91.40265 17886 ft 316 kts 275°
2026-04-22 10:57 29.28769 91.37802 17673 ft 303 kts 275°
2026-04-22 10:58 29.28942 91.35444 17471 ft 291 kts 275°
2026-04-22 10:58 29.29109 91.33171 17270 ft 283 kts 275°
2026-04-22 10:58 29.29274 91.30943 17082 ft 277 kts 275°
2026-04-22 10:58 29.29436 91.28765 16872 ft 272 kts 275°
2026-04-22 10:59 29.29596 91.26629 16676 ft 266 kts 274°
2026-04-22 10:59 29.29754 91.24536 16482 ft 262 kts 274°
2026-04-22 10:59 29.29907 91.22492 16381 ft 260 kts 274°
2026-04-22 10:59 29.30115 91.20420 16084 ft 265 kts 278°
2026-04-22 11:00 29.30427 91.18320 15692 ft 267 kts 276°
2026-04-22 11:00 29.30495 91.16220 15362 ft 261 kts 268°
2026-04-22 11:00 29.30462 91.14169 15054 ft 255 kts 268°
2026-04-22 11:00 29.30435 91.12171 14763 ft 246 kts 269°
2026-04-22 11:01 29.30408 91.10236 14426 ft 237 kts 269°
2026-04-22 11:01 29.30383 91.08414 14139 ft 221 kts 269°
2026-04-22 11:01 29.30361 91.06703 13884 ft 208 kts 269°
2026-04-22 11:01 29.30341 91.05087 13643 ft 198 kts 269°
2026-04-22 11:02 29.30320 91.03542 13403 ft 190 kts 269°
2026-04-22 11:02 29.30299 91.02060 13172 ft 182 kts 269°
2026-04-22 11:02 29.30278 91.00635 12950 ft 176 kts 269°
2026-04-22 11:02 29.30259 90.99250 12734 ft 173 kts 269°
2026-04-22 11:03 29.30238 90.97876 12518 ft 172 kts 269°
2026-04-22 11:03 29.30210 90.96515 12307 ft 171 kts 268°
2026-04-22 11:03 29.30177 90.95154 12109 ft 170 kts 269°
2026-04-22 11:03 29.30184 90.93807 11911 ft 170 kts 270°
2026-04-22 11:04 29.30168 90.92477 11737 ft 166 kts 269°
2026-04-22 11:04 29.30149 90.91182 11997 ft 166 kts 269°
2026-04-22 11:04 29.30137 90.89828 12593 ft 174 kts 270°
2026-04-22 11:04 29.30124 90.88395 13070 ft 188 kts 269°
2026-04-22 11:05 29.30095 90.86821 13211 ft 208 kts 268°
2026-04-22 11:05 29.29881 90.85098 13357 ft 230 kts 256°
2026-04-22 11:05 29.29313 90.83302 13586 ft 249 kts 245°
2026-04-22 11:05 29.28753 90.81406 14096 ft 255 kts 262°
2026-04-22 11:06 29.28846 90.79408 14687 ft 257 kts 284°
2026-04-22 11:06 29.29630 90.77541 15313 ft 260 kts 307°
2026-04-22 11:06 29.30989 90.76178 15897 ft 263 kts 330°
2026-04-22 11:06 29.32698 90.75537 16482 ft 265 kts 353°
2026-04-22 11:07 29.34555 90.75727 17066 ft 268 kts 17°
2026-04-22 11:07 29.36176 90.76763 17641 ft 270 kts 40°
2026-04-22 11:07 29.37292 90.78461 18220 ft 273 kts 64°
2026-04-22 11:07 29.37731 90.80583 18733 ft 279 kts 88°
2026-04-22 11:08 29.37415 90.82789 19212 ft 283 kts 103°
2026-04-22 11:08 29.37073 90.85018 19701 ft 285 kts 93°
2026-04-22 11:08 29.37199 90.87273 20152 ft 285 kts 72°
2026-04-22 11:08 29.38094 90.89288 20603 ft 285 kts 49°
2026-04-22 11:09 29.39596 90.90733 21054 ft 283 kts 26°
2026-04-22 11:09 29.41390 90.91660 21521 ft 284 kts 21°
2026-04-22 11:09 29.43206 90.92568 21676 ft 285 kts 21°
2026-04-22 11:09 29.45018 90.93479 21699 ft 284 kts 21°
2026-04-22 11:10 29.46883 90.94416 21698 ft 304 kts 21°
2026-04-22 11:10 29.48869 90.95411 21697 ft 316 kts 21°
2026-04-22 11:10 29.50892 90.96430 21695 ft 319 kts 21°
2026-04-22 11:10 29.52928 90.97460 21699 ft 320 kts 21°
2026-04-22 11:11 29.54968 90.98493 21697 ft 320 kts 21°
2026-04-22 11:11 29.57008 90.99528 21694 ft 320 kts 22°
2026-04-22 11:11 29.58968 91.00747 21696 ft 322 kts 31°
2026-04-22 11:11 29.60761 91.02308 21699 ft 324 kts 40°
2026-04-22 11:12 29.62314 91.04194 21699 ft 327 kts 49°
2026-04-22 11:12 29.63597 91.06362 21699 ft 329 kts 58°
2026-04-22 11:12 29.64578 91.08749 21694 ft 331 kts 68°
2026-04-22 11:12 29.65226 91.11295 21693 ft 333 kts 77°
2026-04-22 11:13 29.65521 91.13937 21688 ft 334 kts 86°
2026-04-22 11:13 29.65464 91.16612 21689 ft 336 kts 92°
2026-04-22 11:13 29.65378 91.19297 21686 ft 336 kts 88°
2026-04-22 11:13 29.65458 91.21940 21686 ft 335 kts 84°
2026-04-22 11:14 29.65693 91.24638 21686 ft 334 kts 80°
2026-04-22 11:14 29.66069 91.27234 21685 ft 333 kts 76°
2026-04-22 11:14 29.66604 91.29820 21687 ft 332 kts 72°
2026-04-22 11:14 29.67293 91.32351 21687 ft 331 kts 68°
2026-04-22 11:15 29.67897 91.34911 21703 ft 332 kts 74°
2026-04-22 11:15 29.68673 91.37400 21702 ft 330 kts 60°
2026-04-22 11:15 29.69889 91.39609 21707 ft 326 kts 48°
2026-04-22 11:15 29.71467 91.41458 21695 ft 323 kts 36°
2026-04-22 11:16 29.73325 91.42885 21697 ft 320 kts 25°
2026-04-22 11:16 29.75310 91.44029 21697 ft 320 kts 27°
2026-04-22 11:16 29.77166 91.45460 21698 ft 323 kts 36°
2026-04-22 11:16 29.78798 91.47242 21698 ft 325 kts 46°
2026-04-22 11:17 29.80143 91.49348 21694 ft 328 kts 57°
2026-04-22 11:17 29.81155 91.51707 21694 ft 330 kts 66°
2026-04-22 11:17 29.81806 91.54250 21698 ft 332 kts 77°
2026-04-22 11:17 29.82141 91.56888 21693 ft 334 kts 80°
2026-04-22 11:18 29.82455 91.59536 21685 ft 334 kts 80°
2026-04-22 11:18 29.82774 91.62190 21687 ft 334 kts 79°
2026-04-22 11:18 29.83095 91.64832 21686 ft 334 kts 79°
2026-04-22 11:18 29.83417 91.67482 21686 ft 334 kts 79°
2026-04-22 11:19 29.83680 91.70145 21685 ft 335 kts 85°
2026-04-22 11:19 29.83638 91.72828 21686 ft 337 kts 94°
2026-04-22 11:19 29.83262 91.75489 21684 ft 338 kts 102°
2026-04-22 11:19 29.82561 91.78077 21688 ft 339 kts 110°
2026-04-22 11:20 29.81569 91.80507 21688 ft 340 kts 117°
2026-04-22 11:20 29.80434 91.82938 21678 ft 340 kts 117°
2026-04-22 11:20 29.79329 91.85305 21676 ft 340 kts 117°
2026-04-22 11:20 29.78208 91.87706 21678 ft 340 kts 117°
2026-04-22 11:21 29.77087 91.90104 21678 ft 340 kts 117°
2026-04-22 11:21 29.75964 91.92501 21679 ft 340 kts 117°
2026-04-22 11:21 29.74841 91.94900 21675 ft 340 kts 117°
2026-04-22 11:21 29.73717 91.97295 21676 ft 340 kts 117°
2026-04-22 11:22 29.72593 91.99695 21672 ft 340 kts 117°
2026-04-22 11:22 29.71575 92.02149 21668 ft 340 kts 110°
2026-04-22 11:22 29.70849 92.04727 21650 ft 338 kts 102°
2026-04-22 11:22 29.70427 92.07378 21650 ft 337 kts 94°
2026-04-22 11:23 29.70304 92.10068 21649 ft 335 kts 86°
2026-04-22 11:23 29.70472 92.12735 21650 ft 334 kts 81°
2026-04-22 11:23 29.70626 92.15409 21648 ft 336 kts 87°
2026-04-22 11:23 29.70562 92.18099 21647 ft 337 kts 92°
2026-04-22 11:24 29.70289 92.20772 21641 ft 338 kts 97°
2026-04-22 11:24 29.69817 92.23419 21639 ft 338 kts 102°
2026-04-22 11:24 29.69272 92.26058 21643 ft 339 kts 102°
2026-04-22 11:24 29.68729 92.28688 21640 ft 338 kts 102°
2026-04-22 11:25 29.67947 92.31241 21636 ft 340 kts 115°
2026-04-22 11:25 29.66747 92.33579 21590 ft 340 kts 126°
2026-04-22 11:25 29.65187 92.35621 21549 ft 340 kts 137°
2026-04-22 11:25 29.63330 92.37307 21508 ft 340 kts 148°
2026-04-22 11:26 29.61241 92.38561 21485 ft 339 kts 159°
2026-04-22 11:26 29.58986 92.39338 21479 ft 338 kts 171°
2026-04-22 11:26 29.56657 92.39612 21480 ft 336 kts 182°
2026-04-22 11:26 29.54342 92.39383 21477 ft 333 kts 193°
2026-04-22 11:27 29.52113 92.38800 21480 ft 333 kts 196°
2026-04-22 11:27 29.49849 92.38101 21481 ft 332 kts 199°
2026-04-22 11:27 29.47700 92.37230 21483 ft 331 kts 204°
2026-04-22 11:27 29.45579 92.36126 21481 ft 330 kts 209°
2026-04-22 11:28 29.43567 92.34863 21472 ft 329 kts 213°
2026-04-22 11:28 29.41665 92.33479 21474 ft 328 kts 217°
2026-04-22 11:28 29.39819 92.31946 21473 ft 328 kts 220°
2026-04-22 11:28 29.38024 92.30259 21476 ft 336 kts 224°
2026-04-22 11:29 29.36308 92.28425 21471 ft 338 kts 227°
2026-04-22 11:29 29.34692 92.26463 21475 ft 338 kts 231°
2026-04-22 11:29 29.33194 92.24387 21476 ft 337 kts 234°
2026-04-22 11:29 29.31829 92.22209 21491 ft 337 kts 238°
2026-04-22 11:30 29.30590 92.19934 21492 ft 336 kts 242°
2026-04-22 11:30 29.29489 92.17577 21491 ft 335 kts 246°
2026-04-22 11:30 29.28533 92.15149 21494 ft 334 kts 250°
2026-04-22 11:30 29.27707 92.12658 21492 ft 334 kts 252°
2026-04-22 11:31 29.26959 92.10147 21487 ft 333 kts 254°
2026-04-22 11:31 29.26307 92.07599 21493 ft 333 kts 257°
2026-04-22 11:31 29.25768 92.05022 21485 ft 333 kts 260°
2026-04-22 11:31 29.25337 92.02462 21493 ft 332 kts 262°
2026-04-22 11:32 29.24988 91.99815 21493 ft 331 kts 264°
2026-04-22 11:32 29.24739 91.97195 21509 ft 331 kts 266°
2026-04-22 11:32 29.24586 91.94567 21550 ft 331 kts 269°
2026-04-22 11:32 29.24531 91.91967 21591 ft 330 kts 271°
2026-04-22 11:33 29.24576 91.89345 21629 ft 330 kts 274°
2026-04-22 11:33 29.24715 91.86726 21665 ft 330 kts 276°
2026-04-22 11:33 29.24932 91.84115 21670 ft 330 kts 277°
2026-04-22 11:33 29.25160 91.81504 21668 ft 329 kts 277°
2026-04-22 11:34 29.25389 91.78891 21674 ft 329 kts 277°
2026-04-22 11:34 29.25616 91.76282 21678 ft 329 kts 277°
2026-04-22 11:34 29.25850 91.73672 21616 ft 331 kts 277°
2026-04-22 11:34 29.26002 91.71934 21405 ft 329 kts 277°
2026-04-22 11:35 29.26223 91.69345 21125 ft 325 kts 277°
2026-04-22 11:35 29.26439 91.66785 20852 ft 321 kts 277°
2026-04-22 11:35 29.26723 91.63404 20483 ft 316 kts 277°
2026-04-22 11:35 29.26861 91.61755 20308 ft 314 kts 276°
2026-04-22 11:36 29.27067 91.59301 20017 ft 304 kts 276°
2026-04-22 11:36 29.27266 91.56930 19773 ft 294 kts 276°
2026-04-22 11:36 29.27460 91.54649 19543 ft 281 kts 277°
2026-04-22 11:36 29.27647 91.52463 19321 ft 273 kts 277°
2026-04-22 11:37 29.27831 91.50313 19103 ft 269 kts 276°
2026-04-22 11:37 29.28000 91.48193 18877 ft 266 kts 276°
2026-04-22 11:37 29.28157 91.46103 18673 ft 260 kts 276°
2026-04-22 11:37 29.28304 91.44075 18425 ft 252 kts 276°
2026-04-22 11:38 29.28445 91.42107 18198 ft 244 kts 276°
2026-04-22 11:38 29.28585 91.40192 17968 ft 240 kts 276°
2026-04-22 11:38 29.28865 91.36404 17527 ft 237 kts 276°
2026-04-22 11:39 29.29005 91.34524 17326 ft 237 kts 276°
2026-04-22 11:39 29.29145 91.32647 17125 ft 234 kts 276°
2026-04-22 11:39 29.29281 91.30813 16921 ft 227 kts 275°
2026-04-22 11:39 29.29414 91.29029 16722 ft 223 kts 275°
2026-04-22 11:40 29.29543 91.27292 16523 ft 221 kts 274°
2026-04-22 11:40 29.29672 91.25542 16329 ft 220 kts 274°
2026-04-22 11:40 29.29800 91.23800 16328 ft 220 kts 274°
2026-04-22 11:40 29.29932 91.22054 16326 ft 220 kts 275°
2026-04-22 11:41 29.30130 91.20305 16055 ft 222 kts 278°
2026-04-22 11:41 29.30407 91.18568 15755 ft 221 kts 277°
2026-04-22 11:41 29.30509 91.16818 15465 ft 220 kts 268°
2026-04-22 11:41 29.30477 91.15075 15186 ft 218 kts 268°
2026-04-22 11:42 29.30449 91.13348 14927 ft 216 kts 268°
2026-04-22 11:42 29.30427 91.11635 14666 ft 214 kts 269°
2026-04-22 11:42 29.30405 91.09932 14393 ft 213 kts 268°
2026-04-22 11:42 29.30384 91.08247 14130 ft 210 kts 269°
2026-04-22 11:43 29.30361 91.06607 13875 ft 201 kts 269°
2026-04-22 11:43 29.30340 91.05040 13637 ft 192 kts 269°
2026-04-22 11:43 29.30320 91.03539 13403 ft 185 kts 269°
2026-04-22 11:43 29.30302 91.02083 13178 ft 181 kts 269°
2026-04-22 11:44 29.30282 91.00670 12962 ft 175 kts 269°
2026-04-22 11:44 29.30263 90.99288 12747 ft 172 kts 269°
2026-04-22 11:44 29.30243 90.97927 12532 ft 170 kts 269°
2026-04-22 11:44 29.30223 90.96578 12320 ft 169 kts 269°
2026-04-22 11:45 29.30196 90.95247 12125 ft 168 kts 268°
2026-04-22 11:45 29.30180 90.93909 11921 ft 168 kts 270°
2026-04-22 11:45 29.30166 90.92581 11720 ft 165 kts 269°
2026-04-22 11:45 29.30153 90.91416 11719 ft 122 kts 269°
2026-04-22 11:46 29.30141 90.90641 11720 ft 72 kts 269°
2026-04-22 11:46 29.30132 90.90277 11716 ft 27 kts 261°
2026-04-22 11:46 29.30057 90.90089 11717 ft 26 kts 243°
2026-04-22 11:46 29.29977 90.89911 11714 ft 20 kts 252°
2026-04-22 11:47 29.29973 90.89761 11722 ft 20 kts 269°
2026-04-22 11:47 29.29970 90.89584 11710 ft 25 kts 269°
2026-04-22 11:47 29.29967 90.89370 11723 ft 27 kts 269°
2026-04-22 11:47 29.29957 90.89209 11716 ft 12 kts 238°
2026-04-22 11:48 29.29869 90.89195 11714 ft 16 kts 179°
2026-04-22 11:48 29.29749 90.89195 11719 ft 18 kts 180°
2026-04-22 11:48 29.29622 90.89195 11720 ft 18 kts 180°
2026-04-22 11:48 29.29523 90.89210 11721 ft 10 kts 123°
2026-04-22 11:49 29.29516 90.89302 11716 ft 14 kts 88°
2026-04-22 11:49 29.29518 90.89420 11710 ft 17 kts 89°
2026-04-22 11:49 29.29519 90.89535 11712 ft 5 kts 89°
2026-04-22 11:49 29.29497 90.89558 11721 ft 6 kts 177°
2026-04-22 11:50 29.29446 90.89557 11721 ft 8 kts 180°
2026-04-22 11:50 29.29389 90.89557 11708 ft 6 kts 181°
2026-04-22 11:50 29.29368 90.89556 11716 ft 0 kts 181°